Current Weather Conditions: station 44065

sailwx.info

Wind from 340 at 15 knots gusting 21

Air temperature -0.1° C
Dewpoint -12.7° C

Last reported at 2020-Jan-20 21:00 UTC.
Time now 2020-Jan-20 21:36 UTC

Location: N 40°24' W 073°42'.
View on Google Maps.

See reports from other nearby stations

  
Tides and Currents Weather Stations Pressure Air Temp Water Temp Dewpoint Dewpoint Depression Visibility Wind Speed Wind Dir Waves Ship Positions
date/time (UTC)wind fromknots sea level pressurealtimeterstation pressurevisibilityair tempwater tempwave heightnotes
2020-Jan-20 21:00 340 15 gusting 21 -0.1
2020-Jan-20 20:50 330 17 gusting 21 -0.1 1.0
2020-Jan-20 20:40 340 15 gusting 21 -0.2
2020-Jan-20 20:30 340 15 gusting 23 -0.2
2020-Jan-20 20:20 340 15 gusting 21 -0.4
2020-Jan-20 20:10 340 15 gusting 21 -0.6
2020-Jan-20 20:00 330 17 gusting 25 -0.5
2020-Jan-20 19:50 340 17 gusting 23 -0.6 1.1
2020-Jan-20 19:40 330 17 gusting 25 -0.8
2020-Jan-20 19:30 330 17 gusting 23 -0.9
2020-Jan-20 19:20 340 19 gusting 23 -0.8
2020-Jan-20 19:10 340 19 gusting 23 -0.8
2020-Jan-20 19:00 340 19 gusting 23 -0.9
2020-Jan-20 18:50 340 21 gusting 27 -1.1 1.1
2020-Jan-20 18:40 340 19 gusting 25 -1.2
2020-Jan-20 18:30 350 21 gusting 27 -1.3
2020-Jan-20 18:20 340 19 gusting 29 -1.2
2020-Jan-20 18:10 340 21 gusting 27 -1.4
2020-Jan-20 18:00 340 19 gusting 25 -1.6
2020-Jan-20 17:50 340 19 gusting 23 -1.9 1.0
2020-Jan-20 17:40 340 19 gusting 25 -2.0
2020-Jan-20 17:30 340 19 gusting 25 -2.0
2020-Jan-20 17:20 340 19 gusting 25 -2.2
2020-Jan-20 17:10 340 19 gusting 27 -2.2
2020-Jan-20 17:00 340 19 gusting 27 -2.5
2020-Jan-20 16:50 340 19 gusting 27 -2.7 1.1
2020-Jan-20 16:40 330 19 gusting 25 -2.7
2020-Jan-20 16:30 330 19 gusting 23 -2.9
2020-Jan-20 16:20 340 19 gusting 25 -2.8
2020-Jan-20 16:10 330 17 gusting 25 -3.0
2020-Jan-20 16:00 340 17 gusting 23 -3.1
2020-Jan-20 15:50 340 19 gusting 25 -3.1 1.1
2020-Jan-20 15:40 340 17 gusting 23 -3.3
2020-Jan-20 15:30 340 19 gusting 25 -3.5
2020-Jan-20 15:20 340 19 gusting 25 -3.4
2020-Jan-20 15:10 340 17 gusting 25 -3.4
2020-Jan-20 15:00 340 19 gusting 25 -3.6
2020-Jan-20 14:50 340 19 gusting 23 -3.8 1.1
2020-Jan-20 14:40 340 19 gusting 25 -3.9
2020-Jan-20 14:30 340 19 gusting 27 -3.9
2020-Jan-20 14:20 340 21 gusting 25 -3.9
2020-Jan-20 14:10 340 19 gusting 25 -4.0
2020-Jan-20 14:00 350 19 gusting 25 -3.7
2020-Jan-20 13:50 340 19 gusting 25 -3.9 1.2
2020-Jan-20 13:40 350 21 gusting 25 -3.9
2020-Jan-20 13:30 350 21 gusting 27 -4.1
2020-Jan-20 13:20 350 21 gusting 27 -4.1
2020-Jan-20 13:10 350 21 gusting 27 -4.0
2020-Jan-20 13:00 350 21 gusting 29 -4.2
2020-Jan-20 12:50 340 23 gusting 29 -4.1 1.3
2020-Jan-20 12:40 340 21 gusting 29 -4.3
2020-Jan-20 12:30 340 21 gusting 27 -4.1
2020-Jan-20 12:20 340 21 gusting 29 -4.1
2020-Jan-20 12:10 340 21 gusting 27 -4.4
2020-Jan-20 12:00 340 19 gusting 25 -4.0
2020-Jan-20 11:50 340 21 gusting 27 -4.1 1.2
2020-Jan-20 11:40 340 21 gusting 29 -3.8
2020-Jan-20 11:30 340 23 gusting 34 -4.0
2020-Jan-20 11:20 340 23 gusting 31 -4.1
2020-Jan-20 11:10 340 23 gusting 31 -3.8
2020-Jan-20 11:00 350 21 gusting 29 -4.0
2020-Jan-20 10:50 340 21 gusting 29 -3.9 1.3
2020-Jan-20 10:40 340 21 gusting 27 -3.8
2020-Jan-20 10:30 350 21 gusting 25 -3.9
2020-Jan-20 10:20 340 21 gusting 27 -3.7
2020-Jan-20 10:10 340 21 gusting 25 -3.9
2020-Jan-20 10:00 330 21 gusting 27 -3.9
2020-Jan-20 09:50 330 19 gusting 27 -3.6 1.3
2020-Jan-20 09:40 340 19 gusting 27 -3.6
2020-Jan-20 09:30 340 21 gusting 27 -3.4
2020-Jan-20 09:20 330 21 gusting 27 -3.2
2020-Jan-20 09:10 330 23 gusting 31 -3.1
2020-Jan-20 09:00 320 23 gusting 29 -2.9
2020-Jan-20 08:50 330 23 gusting 29 -2.8 1.3
2020-Jan-20 08:40 320 23 gusting 29 -2.5
2020-Jan-20 08:30 330 21 gusting 29 -2.3
2020-Jan-20 08:20 330 21 gusting 27 -2.3
2020-Jan-20 08:10 320 21 gusting 27 -2.2
2020-Jan-20 08:00 320 23 gusting 29 -2.0
2020-Jan-20 07:50 320 23 gusting 29 -2.1 1.4
2020-Jan-20 07:40 320 23 gusting 29 -1.9
2020-Jan-20 07:30 320 23 gusting 29 -2.0
2020-Jan-20 07:20 320 21 gusting 27 -1.8
2020-Jan-20 07:10 320 23 gusting 27 -1.7
2020-Jan-20 07:00 330 23 gusting 29 -1.5
2020-Jan-20 06:50 320 23 gusting 31 -1.4 1.6
2020-Jan-20 06:40 320 23 gusting 33 -1.3
2020-Jan-20 06:30 310 25 gusting 33 -1.1
2020-Jan-20 06:20 310 27 gusting 31 -0.8
2020-Jan-20 06:10 320 27 gusting 34 -0.6
2020-Jan-20 06:00 320 27 gusting 34 -0.3
2020-Jan-20 05:50 320 27 gusting 33 -0.3 1.3
2020-Jan-20 05:40 320 25 gusting 31 -0.0
2020-Jan-20 05:30 320 23 gusting 29 0.1
2020-Jan-20 05:20 330 23 gusting 29 0.5
2020-Jan-20 05:10 320 21 gusting 27 0.9
2020-Jan-20 05:00 310 19 gusting 25 0.8
2020-Jan-20 04:50 310 21 gusting 27 0.9
2020-Jan-20 04:40 320 21 gusting 29 1.2
2020-Jan-20 04:30 300 23 gusting 29 1.0
2020-Jan-20 04:20 300 23 gusting 29 1.0
2020-Jan-20 04:10 300 21 gusting 27 1.1
2020-Jan-20 04:00 300 23 gusting 29 1.0
2020-Jan-20 03:50 290 23 gusting 27 0.9 1.3
2020-Jan-20 03:40 290 21 gusting 27 1.0
2020-Jan-20 03:30 280 21 gusting 29 0.9
2020-Jan-20 03:20 280 23 gusting 29 1.0
2020-Jan-20 03:10 280 23 gusting 29 1.0
2020-Jan-20 03:00 280 23 gusting 29 1.2
2020-Jan-20 02:50 280 23 gusting 29 1.2 1.2
2020-Jan-20 02:40 280 23 gusting 27 1.3
2020-Jan-20 02:30 280 21 gusting 27 1.5
2020-Jan-20 02:20 290 23 gusting 29 1.7
2020-Jan-20 02:10 280 23 gusting 29 1.8
2020-Jan-20 02:00 280 23 gusting 29 2.0
2020-Jan-20 01:50 290 23 gusting 29 2.3 1.4
2020-Jan-20 01:40 300 23 gusting 29 2.5
2020-Jan-20 01:30 310 23 gusting 29 2.6
2020-Jan-20 01:20 310 25 gusting 31 2.5
2020-Jan-20 01:10 310 25 gusting 31 2.8
2020-Jan-20 01:00 300 25 gusting 31 2.8
2020-Jan-20 00:50 310 25 gusting 33 3.0 1.3
2020-Jan-20 00:40 310 21 gusting 27 3.3
2020-Jan-20 00:30 300 21 gusting 25 3.3
2020-Jan-20 00:20 310 21 gusting 27 3.4
2020-Jan-20 00:10 310 19 gusting 25 3.5
2020-Jan-20 00:00 320 21 gusting 27 3.6
2020-Jan-19 23:50 320 23 gusting 27 3.7 1.5
2020-Jan-19 23:40 320 23 gusting 29 3.8
2020-Jan-19 23:30 320 23 gusting 31 3.9
2020-Jan-19 23:20 320 23 gusting 29 4.1
2020-Jan-19 23:10 320 25 gusting 31 4.2
2020-Jan-19 23:00 310 21 gusting 25 4.4
2020-Jan-19 22:50 300 23 gusting 29 4.4 1.5
2020-Jan-19 22:40 310 23 gusting 29 4.5
2020-Jan-19 22:30 300 23 gusting 29 4.6
2020-Jan-19 22:20 300 23 gusting 27 4.6
2020-Jan-19 22:10 290 21 gusting 27 4.5
2020-Jan-19 22:00 290 23 gusting 27 4.6
2020-Jan-19 21:50 290 23 gusting 29 4.7 1.5
2020-Jan-19 21:40 280 23 gusting 29 4.6
2020-Jan-19 21:30 280 25 gusting 31 4.8
2020-Jan-19 21:20 290 25 gusting 29 5.0
2020-Jan-19 21:10 290 23 gusting 29 5.1
2020-Jan-19 21:00 290 21 gusting 27 5.1
2020-Jan-19 20:50 290 23 gusting 29 5.1 1.4
2020-Jan-19 20:40 280 21 gusting 25 5.1
2020-Jan-19 20:30 280 21 gusting 25 5.0
2020-Jan-19 20:20 280 21 gusting 25 5.0
2020-Jan-19 20:10 280 21 gusting 25 4.9
2020-Jan-19 20:00 280 21 gusting 25 4.9
2020-Jan-19 19:50 280 21 gusting 25 5.0 1.5
2020-Jan-19 19:40 290 21 gusting 25 5.0
2020-Jan-19 19:30 280 19 gusting 27 4.9
2020-Jan-19 19:20 290 21 gusting 27 4.8
2020-Jan-19 19:10 300 21 gusting 25 4.9
2020-Jan-19 19:00 290 21 gusting 29 4.9
2020-Jan-19 18:50 290 21 gusting 27 5.0 1.7
2020-Jan-19 18:40 290 21 gusting 25 4.9
2020-Jan-19 18:30 290 21 gusting 27 5.0
2020-Jan-19 18:20 300 21 gusting 27 5.1
2020-Jan-19 18:10 310 23 gusting 27 5.2
2020-Jan-19 18:00 300 21 gusting 27 5.4
2020-Jan-19 17:50 300 19 gusting 23 5.6 1.7
2020-Jan-19 17:40 290 19 gusting 25 5.7
2020-Jan-19 17:30 290 19 gusting 25 5.6
2020-Jan-19 17:20 280 19 gusting 25 5.6
2020-Jan-19 17:10 280 19 gusting 25 5.7
2020-Jan-19 17:00 290 21 gusting 27 5.9
2020-Jan-19 16:50 290 21 gusting 27 6.0 1.8
2020-Jan-19 16:40 300 19 gusting 27 5.9
2020-Jan-19 16:30 300 21 gusting 25 5.9
2020-Jan-19 16:20 300 19 gusting 25 5.9
2020-Jan-19 16:10 300 21 gusting 25 5.9
2020-Jan-19 16:00 290 19 gusting 27 6.0
2020-Jan-19 15:50 290 19 gusting 25 6.1 1.6
2020-Jan-19 15:40 290 19 gusting 25 6.3
2020-Jan-19 15:30 280 19 gusting 25 6.3
2020-Jan-19 15:20 280 15 gusting 23 6.1
2020-Jan-19 15:10 270 13 gusting 19 5.6
2020-Jan-19 15:00 260 13 gusting 17 5.4
2020-Jan-19 14:50 260 13 gusting 15 5.4 1.5
2020-Jan-19 14:40 250 13 gusting 15 5.2
2020-Jan-19 14:30 250 13 gusting 15 5.2
2020-Jan-19 14:20 260 11 gusting 15 5.2
2020-Jan-19 14:10 260 11 gusting 15 5.1
2020-Jan-19 14:00 260 13 gusting 17 5.1
2020-Jan-19 13:50 270 13 gusting 17 5.2 1.4
2020-Jan-19 13:40 280 15 gusting 17 5.2
2020-Jan-19 13:30 290 15 gusting 17 5.3
2020-Jan-19 13:20 300 15 gusting 19 5.4
2020-Jan-19 13:10 300 17 gusting 23 5.6
2020-Jan-19 13:00 300 17 gusting 25 5.7
2020-Jan-19 12:50 290 17 gusting 21 5.4 1.4
2020-Jan-19 12:40 290 17 gusting 21 5.2
2020-Jan-19 12:30 290 17 gusting 23 5.1
2020-Jan-19 12:20 280 17 gusting 21 5.0
2020-Jan-19 12:10 290 19 gusting 25 5.0
2020-Jan-19 12:00 290 19 gusting 25 5.0
2020-Jan-19 11:50 280 19 gusting 25 5.0 1.5
2020-Jan-19 11:40 280 19 gusting 23 4.9
2020-Jan-19 11:30 280 17 gusting 23 4.8
2020-Jan-19 11:20 280 17 gusting 21 4.7
2020-Jan-19 11:10 270 15 gusting 19 4.7
2020-Jan-19 11:00 280 15 gusting 19 4.7
2020-Jan-19 10:50 270 15 gusting 19 4.6 1.5
2020-Jan-19 10:40 280 15 gusting 19 4.6
2020-Jan-19 10:30 280 17 gusting 19 4.5
2020-Jan-19 10:20 280 17 gusting 21 4.5
2020-Jan-19 10:10 280 17 gusting 21 4.6
2020-Jan-19 10:00 280 17 gusting 21 4.6
2020-Jan-19 09:50 280 17 gusting 21 4.5 1.7
2020-Jan-19 09:40 280 17 gusting 21 4.6
2020-Jan-19 09:30 290 15 gusting 19 4.6
2020-Jan-19 09:20 290 15 gusting 19 4.9
2020-Jan-19 09:10 280 15 gusting 21 4.9
2020-Jan-19 09:00 270 15 gusting 21 5.0
2020-Jan-19 08:50 270 13 gusting 17 5.0 1.7
2020-Jan-19 08:40 270 13 gusting 19 5.0
2020-Jan-19 08:30 270 15 gusting 19 5.0
2020-Jan-19 08:20 270 15 gusting 19 5.1
2020-Jan-19 08:10 270 15 gusting 21 5.1
2020-Jan-19 08:00 260 15 gusting 21 5.1
2020-Jan-19 07:50 270 15 gusting 21 5.2 1.8
2020-Jan-19 07:40 270 15 gusting 21 5.2
2020-Jan-19 07:30 270 15 gusting 19 5.3
2020-Jan-19 07:20 260 15 gusting 19 5.3
2020-Jan-19 07:10 260 15 gusting 19 5.4
2020-Jan-19 07:00 260 17 gusting 21 5.5
2020-Jan-19 06:50 250 15 gusting 21 5.6 1.8
2020-Jan-19 06:40 250 17 gusting 21 5.5
2020-Jan-19 06:30 240 17 gusting 21 5.5
2020-Jan-19 06:20 240 19 gusting 23 5.5
2020-Jan-19 06:10 240 19 gusting 25 5.5
2020-Jan-19 06:00 240 19 gusting 25 5.5
2020-Jan-19 05:50 240 19 gusting 23 5.4 1.8
2020-Jan-19 05:40 240 19 gusting 25 5.4
2020-Jan-19 05:30 230 19 gusting 23 5.4
2020-Jan-19 05:20 240 21 gusting 25 5.4
2020-Jan-19 05:10 230 19 gusting 25 5.4
2020-Jan-19 05:00 240 21 gusting 29 5.3
2020-Jan-19 04:50 230 23 gusting 29 5.4 2.0
2020-Jan-19 04:40 230 23 gusting 29 5.4
2020-Jan-19 04:30 230 23 gusting 29 5.4
2020-Jan-19 04:20 240 23 gusting 29 5.5
2020-Jan-19 04:10 230 25 gusting 33 5.5
2020-Jan-19 04:00 230 25 gusting 33 5.5
2020-Jan-19 03:50 230 23 gusting 31 5.6 1.9
2020-Jan-19 03:40 230 25 gusting 33 5.6
2020-Jan-19 03:30 230 25 gusting 33 5.6
2020-Jan-19 03:20 230 25 gusting 34 5.8
2020-Jan-19 03:10 230 25 gusting 33 5.9
2020-Jan-19 03:00 220 23 gusting 31 6.0
2020-Jan-19 02:50 210 21 gusting 27 5.9 1.7
2020-Jan-19 02:40 210 21 gusting 29 5.7
2020-Jan-19 02:30 210 21 gusting 25 5.6
2020-Jan-19 02:20 220 19 gusting 25 5.5
2020-Jan-19 02:10 220 17 gusting 21 5.3
2020-Jan-19 02:00 230 17 gusting 21 5.3
2020-Jan-19 01:50 230 17 gusting 21 5.6 1.6
2020-Jan-19 01:40 210 17 gusting 23 6.3
2020-Jan-19 01:30 210 19 gusting 23 6.2
2020-Jan-19 01:20 210 17 gusting 21 6.0
2020-Jan-19 01:10 200 19 gusting 23 5.8
2020-Jan-19 01:00 200 19 gusting 25 5.6
2020-Jan-19 00:50 200 19 gusting 23 5.4 1.6
2020-Jan-19 00:40 200 19 gusting 23 5.3
2020-Jan-19 00:30 190 17 gusting 23 4.9
2020-Jan-19 00:20 190 19 gusting 25 4.7
2020-Jan-19 00:10 180 19 gusting 27 4.6
2020-Jan-19 00:00 190 21 gusting 25 4.3
2020-Jan-18 23:50 190 21 gusting 25 4.1 1.3
2020-Jan-18 23:40 190 21 gusting 29 3.9
2020-Jan-18 23:30 190 21 gusting 27 3.7
2020-Jan-18 23:20 190 21 gusting 27 3.3
2020-Jan-18 23:10 180 21 gusting 25 3.0
2020-Jan-18 23:00 180 21 gusting 25 2.7
2020-Jan-18 22:50 180 21 gusting 25 2.5 1.1
2020-Jan-18 22:40 180 19 gusting 23 2.2
2020-Jan-18 22:30 180 17 gusting 21 2.0
2020-Jan-18 22:20 180 17 gusting 21 1.9
2020-Jan-18 22:10 180 17 gusting 21 1.6
2020-Jan-18 22:00 180 17 gusting 21 1.4
2020-Jan-18 21:50 180 15 gusting 19 1.2 1.0
2020-Jan-18 21:40 170 13 gusting 17 0.9
2020-Jan-18 21:30 180 15 gusting 19 0.9
2020-Jan-18 21:20 180 17 gusting 19 0.8
2020-Jan-18 21:10 180 15 gusting 19 0.6
2020-Jan-18 21:00 190 15 gusting 19 0.5